SCP
0 0 0 0 -0 -0 -0 0 0 0 -0 0 0 -0 0 0 -0 -0 -0 -0 -0 0 0 0 -0 -0 0 0 0 0 0 0
0 0 0 0 0 -0 -0 0 0 0 0 0 0 0 0 -0 -0 -0 0 0 0 0 0 0 -0 -0 0 0 0 0 0 0
0 0 0 0 -0 0 0 0 0 -0 -0 0 0 0 0 0 0 0 0 0 0 0 0 -0 -0 0 0 0 0 0 0 0
0 0 0 0 0 -0 0 0 0 0 0 0 0 0 0 0 -0 -0 0 0 0 0 0 0 -0 0 0 0 0 0 0 0
0 0 0 0 0 0 0 0 0 0 0 -0 0 0 0 0 -0 0 0 0 0 0 0 0 -0 -0 0 0 0 0 0 0
0 0 0 0 0 0 0 0 -0 0 0 0 0 0 0 0 0 0 0 0 0 0 0 0 0 0 -0 -0 0 0 0 0
0 0 0 0 0 0 -0 0 0 0 0 -0 0 0 0 -0 0 0 0 0 0 0 0 0 0 0 -0 -0 0 0 0 0
0 0 0 0 0 0 0 0 0 -0 0 0 0 0 0 0 0 0 -0 0 0 0 0 0 -0 -0 -0 0 0 0 -0 -0
0 0 0 0 0 0 0 0 0 0 0 0 0 0 0 0 -0 -0 -0 -0 0 0 0 -0 -0 -0 -0 -0 -0 -0 -0 -0
0 0 0 0 0 0 0 0 0 0 0 0 0 0 0 0 0 -0 -0 -0 -0 0 0 0 0 -0 0 -0 -0 -0 -0 -0
0 0 0 0 0 0 0 0 0 0 0 0 0 0 0 0 0 0 0 -0 -0 -0 0 0 -0 -0 -0 -0 -0 -0 -0 -1
0 0 0 0 0 0 0 0 0 0 0 0 0 0 0 0 0 0 0 0 0 0 -0 0 -0 0 -0 -0 -0 -0 -1 -1
0 0 0 0 0 0 0 0 0 0 0 0 0 0 0 0 0 0 0 0 0 0 0 0 1 0 -0 -0 -0 -1 -0 -1
0 0 0 0 0 0 0 1 1 1 0 0 0 0 0 0 0 0 0 0 0 0 0 1 2 2 0 0 -1 1 1 -0
0 0 0 0 0 0 0 0 0 0 0 0 0 0 0 0 0 0 0 0 0 0 1 1 1 2 1 -0 1 0 2 1
0 0 0 0 0 0 0 0 0 0 0 0 0 1 1 0 0 0 0 0 0 0 1 2 2 2 2 2 2 3 2 3
0 0 0 0 0 0 0 0 0 0 0 0 0 0 0 0 2 2 1 1 1 1 2 3 5 4 3 3 3 3 3 3
0 0 0 0 0 0 0 0 0 0 1 1 1 0 0 0 0 1 1 1 2 3 4 4 5 5 5 4 6 5 4 3
0 0 0 0 0 0 0 -0 -0 -0 -0 -0 0 0 0 0 0 0 2 3 2 3 5 4 4 3 4 7 6 6 5 5
Wind_Speed_500mb
52 51 50 53 50 46 48 18 20 5 37 28 20 26 10 28 62 66 64 64 65 67 68 66 66 65 62 57 54 51 50 49
57 51 53 61 41 44 36 36 6 23 30 25 31 20 19 19 56 65 63 62 63 65 66 65 64 63 59 57 53 50 47 47
46 53 51 44 48 43 44 39 14 24 40 34 25 18 3 25 52 63 64 63 62 63 63 62 61 62 61 58 54 51 51 48
57 48 57 55 56 53 33 46 29 15 24 39 26 18 12 34 51 58 59 60 59 60 61 62 62 62 61 60 57 55 53 55
46 52 54 55 60 56 45 41 42 14 24 40 22 11 28 42 48 54 57 58 58 59 61 62 62 63 62 62 59 55 57 54
39 44 46 57 57 55 55 37 40 35 6 25 20 19 33 45 49 55 57 59 60 60 61 63 64 65 65 64 59 59 57 55
56 50 49 53 60 56 60 51 50 40 48 62 27 24 32 45 49 54 55 61 62 63 64 65 66 65 66 64 62 61 65 63
49 52 47 51 60 63 57 59 54 47 45 46 25 30 33 42 49 54 57 60 61 62 64 68 71 73 72 74 72 70 71 70
44 48 53 43 57 61 57 56 54 51 34 50 54 28 37 34 45 52 57 59 63 69 72 75 77 80 77 77 74 74 75 73
32 40 57 25 37 42 54 53 54 47 45 41 25 32 28 39 45 48 52 57 60 63 68 76 69 69 70 69 76 77 78 78
25 37 29 41 40 38 47 53 52 50 51 36 53 28 32 34 36 49 52 53 58 60 65 62 69 73 77 76 77 82 84 87
19 34 56 36 43 33 33 35 43 51 47 48 43 32 25 43 30 29 27 44 54 57 56 59 72 74 79 86 84 87 90 96
24 19 25 34 37 51 37 18 22 39 34 41 32 32 42 34 30 40 39 37 40 49 55 70 74 80 87 91 96 94 91 91
28 24 30 23 11 3 15 20 25 25 12 44 45 50 45 43 46 30 40 35 36 45 55 64 68 80 91 101 102 94 89 86
29 27 16 29 27 31 29 28 26 27 23 24 21 46 59 59 49 51 38 33 36 41 49 54 68 84 91 103 99 92 92 88
19 38 25 19 24 32 36 34 32 32 36 29 27 28 33 35 58 59 56 53 47 46 48 56 56 62 70 78 83 90 92 89
20 30 22 20 26 37 40 38 41 41 37 34 36 40 40 43 47 49 54 57 55 53 65 68 65 62 62 78 83 96 91 84
10 24 21 25 33 36 40 41 42 48 48 40 39 45 43 46 46 49 56 54 54 55 59 68 68 67 66 70 86 87 84 80
24 26 26 23 28 28 34 37 45 40 41 46 45 46 47 48 44 45 39 30 42 55 60 56 60 63 63 72 81 81 79 72
Wind_Direction_500mb
219 217 226 216 225 228 248 273 267 63 264 211 167 199 175 188 172 185 189 189 191 193 194 195 195 196 198 202 208 209 211 215
202 216 219 235 204 224 240 245 231 289 295 208 191 205 176 213 171 179 184 186 188 191 192 194 195 196 197 202 206 206 207 211
201 204 210 216 224 217 235 238 190 225 243 175 167 185 77 187 169 174 181 185 185 188 190 193 194 195 198 200 203 205 206 210
217 201 220 215 217 226 224 236 251 270 289 227 146 141 168 175 162 173 182 184 182 186 186 190 193 195 197 199 202 205 207 207
238 199 206 224 219 222 226 235 236 171 245 260 131 131 159 154 164 171 179 181 180 183 184 189 191 193 196 199 202 204 209 210
216 213 203 206 227 214 230 218 231 208 115 290 140 133 152 153 165 172 180 179 179 182 182 187 190 192 195 199 200 203 206 209
241 231 206 203 215 218 222 229 227 243 146 252 123 120 152 155 166 173 181 180 179 182 182 186 190 193 196 199 198 202 210 212
240 246 246 216 203 222 218 225 236 216 248 202 97 117 157 159 172 177 185 185 184 186 188 189 191 194 198 198 202 201 215 219
237 232 241 237 210 208 222 220 225 230 216 262 154 161 152 176 179 187 188 189 191 192 193 195 196 199 200 203 204 209 214 221
230 232 232 221 229 216 219 229 230 233 228 232 248 176 169 177 187 192 196 198 200 200 201 203 200 202 201 206 210 213 217 223
232 228 229 228 231 228 212 219 231 224 241 229 216 232 183 205 184 190 199 205 207 209 211 207 207 207 210 206 215 217 224 226
242 239 221 221 219 227 239 243 217 229 230 245 230 224 217 210 201 206 213 208 211 211 213 213 215 211 214 213 213 225 226 230
227 249 254 204 213 211 225 223 278 237 241 251 258 249 242 218 224 225 226 223 217 214 214 216 225 220 216 222 219 226 229 231
224 217 231 14 342 2 360 2 0 3 240 243 240 254 254 248 240 243 218 224 220 217 218 219 217 223 223 224 227 223 222 224
208 214 89 63 32 16 2 352 347 332 333 336 298 246 235 247 239 248 246 232 230 229 232 225 222 222 226 231 224 221 221 221
225 223 249 19 25 355 340 339 330 318 310 310 301 290 284 268 240 243 245 241 240 237 229 236 238 233 233 224 216 218 219 217
231 38 331 60 0 342 333 330 325 317 307 298 292 289 284 278 279 272 241 242 243 239 234 241 247 244 234 222 215 217 215 211
48 25 348 340 335 335 330 328 330 314 305 297 285 276 274 269 267 267 253 244 242 240 237 242 245 244 236 223 215 207 201 201
8 343 329 327 325 329 321 339 335 319 304 292 282 273 270 270 267 259 262 241 236 240 236 236 229 235 231 212 213 205 197 195
Wind_Speed_850mb
52 51 50 53 50 46 48 18 20 5 37 28 20 26 10 28 62 66 64 64 65 67 68 66 66 65 62 57 54 51 50 49
57 51 53 61 41 44 36 36 6 23 30 25 31 20 19 19 56 65 63 62 63 65 66 65 64 63 59 57 53 50 47 47
46 53 51 44 48 43 44 39 14 24 40 34 25 18 3 25 52 63 64 63 62 63 63 62 61 62 61 58 54 51 51 48
57 48 57 55 56 53 33 46 29 15 24 39 26 18 12 34 51 58 59 60 59 60 61 62 62 62 61 60 57 55 53 55
46 52 54 55 60 56 45 41 42 14 24 40 22 11 28 42 48 54 57 58 58 59 61 62 62 63 62 62 59 55 57 54
39 44 46 57 57 55 55 37 40 35 6 25 20 19 33 45 49 55 57 59 60 60 61 63 64 65 65 64 59 59 57 55
56 50 49 53 60 56 60 51 50 40 48 62 27 24 32 45 49 54 55 61 62 63 64 65 66 65 66 64 62 61 65 63
49 52 47 51 60 63 57 59 54 47 45 46 25 30 33 42 49 54 57 60 61 62 64 68 71 73 72 74 72 70 71 70
44 48 53 43 57 61 57 56 54 51 34 50 54 28 37 34 45 52 57 59 63 69 72 75 77 80 77 77 74 74 75 73
32 40 57 25 37 42 54 53 54 47 45 41 25 32 28 39 45 48 52 57 60 63 68 76 69 69 70 69 76 77 78 78
25 37 29 41 40 38 47 53 52 50 51 36 53 28 32 34 36 49 52 53 58 60 65 62 69 73 77 76 77 82 84 87
19 34 56 36 43 33 33 35 43 51 47 48 43 32 25 43 30 29 27 44 54 57 56 59 72 74 79 86 84 87 90 96
24 19 25 34 37 51 37 18 22 39 34 41 32 32 42 34 30 40 39 37 40 49 55 70 74 80 87 91 96 94 91 91
28 24 30 23 11 3 15 20 25 25 12 44 45 50 45 43 46 30 40 35 36 45 55 64 68 80 91 101 102 94 89 86
29 27 16 29 27 31 29 28 26 27 23 24 21 46 59 59 49 51 38 33 36 41 49 54 68 84 91 103 99 92 92 88
19 38 25 19 24 32 36 34 32 32 36 29 27 28 33 35 58 59 56 53 47 46 48 56 56 62 70 78 83 90 92 89
20 30 22 20 26 37 40 38 41 41 37 34 36 40 40 43 47 49 54 57 55 53 65 68 65 62 62 78 83 96 91 84
10 24 21 25 33 36 40 41 42 48 48 40 39 45 43 46 46 49 56 54 54 55 59 68 68 67 66 70 86 87 84 80
24 26 26 23 28 28 34 37 45 40 41 46 45 46 47 48 44 45 39 30 42 55 60 56 60 63 63 72 81 81 79 72
Wind_Direction_850mb
219 217 226 216 225 228 248 273 267 63 264 211 167 199 175 188 172 185 189 189 191 193 194 195 195 196 198 202 208 209 211 215
202 216 219 235 204 224 240 245 231 289 295 208 191 205 176 213 171 179 184 186 188 191 192 194 195 196 197 202 206 206 207 211
201 204 210 216 224 217 235 238 190 225 243 175 167 185 77 187 169 174 181 185 185 188 190 193 194 195 198 200 203 205 206 210
217 201 220 215 217 226 224 236 251 270 289 227 146 141 168 175 162 173 182 184 182 186 186 190 193 195 197 199 202 205 207 207
238 199 206 224 219 222 226 235 236 171 245 260 131 131 159 154 164 171 179 181 180 183 184 189 191 193 196 199 202 204 209 210
216 213 203 206 227 214 230 218 231 208 115 290 140 133 152 153 165 172 180 179 179 182 182 187 190 192 195 199 200 203 206 209
241 231 206 203 215 218 222 229 227 243 146 252 123 120 152 155 166 173 181 180 179 182 182 186 190 193 196 199 198 202 210 212
240 246 246 216 203 222 218 225 236 216 248 202 97 117 157 159 172 177 185 185 184 186 188 189 191 194 198 198 202 201 215 219
237 232 241 237 210 208 222 220 225 230 216 262 154 161 152 176 179 187 188 189 191 192 193 195 196 199 200 203 204 209 214 221
230 232 232 221 229 216 219 229 230 233 228 232 248 176 169 177 187 192 196 198 200 200 201 203 200 202 201 206 210 213 217 223
232 228 229 228 231 228 212 219 231 224 241 229 216 232 183 205 184 190 199 205 207 209 211 207 207 207 210 206 215 217 224 226
242 239 221 221 219 227 239 243 217 229 230 245 230 224 217 210 201 206 213 208 211 211 213 213 215 211 214 213 213 225 226 230
227 249 254 204 213 211 225 223 278 237 241 251 258 249 242 218 224 225 226 223 217 214 214 216 225 220 216 222 219 226 229 231
224 217 231 14 342 2 360 2 0 3 240 243 240 254 254 248 240 243 218 224 220 217 218 219 217 223 223 224 227 223 222 224
208 214 89 63 32 16 2 352 347 332 333 336 298 246 235 247 239 248 246 232 230 229 232 225 222 222 226 231 224 221 221 221
225 223 249 19 25 355 340 339 330 318 310 310 301 290 284 268 240 243 245 241 240 237 229 236 238 233 233 224 216 218 219 217
231 38 331 60 0 342 333 330 325 317 307 298 292 289 284 278 279 272 241 242 243 239 234 241 247 244 234 222 215 217 215 211
48 25 348 340 335 335 330 328 330 314 305 297 285 276 274 269 267 267 253 244 242 240 237 242 245 244 236 223 215 207 201 201
8 343 329 327 325 329 321 339 335 319 304 292 282 273 270 270 267 259 262 241 236 240 236 236 229 235 231 212 213 205 197 195